Location: ?????????
(41.1143°N, 22.7905°E)
Time: 16:56:53
(UTC+00:00)

Cosmos 1553 Rocket - Pass Details

Date: 13 December 2025
Orbit: 942 x 1006 km, 82.9° (Epoch: 22 January)

Event Time Altitude Azimuth Distance (km) Brightness Sun altitude
Rises 17:04:56 0° 191° (S) 3,615 7.3 -22.6°
Reaches altitude 10° 17:07:25 10° 193° (SSW) 2,681 6.6 -23.1°
Maximum altitude 17:13:33 74° 278° (W) 1,010 4.1 -24.2°
Drops below altitude 10° 17:19:50 10° 4° (N) 2,744 6.2 -25.4°
Sets 17:22:23 0° 6° (N) 3,705 6.9 -25.8°
